National Weather Service Raw Text Product

Displaying AFOS PIL: RWRIA Received: 2018-02-09 06:00 UTC


899 
ASUS43 KDMX 090606
RWRIA 

WEATHER ROUNDUP FOR IOWA
NATIONAL WEATHER SERVICE DES MOINES IA
1200 AM CST FRI FEB 09 2018

NOTE: "FAIR" INDICATES FEW OR NO CLOUDS BELOW 12,000 FEET WITH NO
SIGNIFICANT WEATHER AND/OR OBSTRUCTIONS TO VISIBILITY.

* - THESE STATIONS ARE NOT NWS STATIONS...THUS NOT UNDER NWS
QUALITY CONTROL.  THEY ALSO DO NOT REPORT WEATHER SUCH 
AS PRECIPITATION OR FOG.  

IAZ001>003-012>014-020>022-031>034-043>046-090700-
   NORTHWEST IOWA
  
CITY           SKY/WX    TMP DP  RH WIND       PRES   REMARKS
CARROLL *      SNOW      16  14  93 NE15      30.17R VSB 1/2 WCI   1  
CHEROKEE *     LGT SNOW  12   9  88 NE12      30.23R WCI  -2          
DENISON *      SNOW      16  14  93 NE14G22   30.17R VSB 1/2 WCI   1  
LE MARS *      CLOUDY    12   9  85 NE18G25   30.23S WCI  -5          
ORANGE CITY *  FLURRIES  12  10  92 NE12      30.22S WCI  -2          
SHELDON *      CLOUDY    10   9  92 NE20G25   30.21S WCI  -8          
SIOUX CITY     CLOUDY    14  10  84 NE14      30.22R WCI  -1          
6HR MIN TEMP:  14; 6HR MAX TEMP:  16; 6HR PCP:  0.19;                

SPENCER        CLOUDY    12   7  80 NE18      30.24S WCI  -6          
6HR MIN TEMP:  11; 6HR MAX TEMP:  14; 6HR PCP: TRACE;                

STORM LAKE *   LGT SNOW  12   9  85 NE20G29   30.19R VSB 3/4 WCI  -6  
$$
 
IAZ055>058-069>071-079>083-090>094-090700-
   SOUTHWEST IOWA
  
CITY           SKY/WX    TMP DP  RH WIND       PRES   REMARKS
ATLANTIC *     CLOUDY    19  18  93 NE17G23   30.10S WCI   4          
AUDUBON *      CLOUDY    18  14  86 NE12G17   30.13R WCI   5          
CLARINDA *     CLOUDY    27  23  86 NE13G20   30.07F WCI  16          
COUNCIL BLFS * CLOUDY    19  19 100 NE15      30.08S WCI   5          
CRESTON *      CLOUDY    21  19  93 NE16G22   30.07F WCI   7          
HARLAN  *      CLOUDY    18  18 100 NE16      30.14F WCI   3          
LAMONI         CLOUDY    25  20  81 NE10      30.05F WCI  15          
6HR MIN TEMP:  25; 6HR MAX TEMP:  31;                                

RED OAK *      CLOUDY    23  19  86 NE14G22   30.07F WCI  11          
SHENANDOAH *   CLOUDY    25  21  86 NE14      30.06S WCI  13          
$$
 
IAZ047>049-059>061-072>074-084-090700-
   CENTRAL IOWA
  
CITY           SKY/WX    TMP DP  RH WIND       PRES   REMARKS
AMES           CLOUDY    18  14  84 NE16      30.18R WCI   3          
6HR MIN TEMP:  18; 6HR MAX TEMP:  18;                                

ANKENY *       CLOUDY    18  16  93 NE10      30.16F WCI   6          
BOONE *        CLOUDY    18  14  86 NE17      30.16R WCI   2          
CHARITON *     CLOUDY    21  19  93 N9        30.09S WCI  11          
DES MOINES     LGT SNOW  20  15  81 E13       30.12F WCI   7          
6HR MIN TEMP:  20; 6HR MAX TEMP:  21; 6HR PCP: TRACE;                

GRINNELL*      CLOUDY    18  16  92 NE16      30.15F WCI   3          
KNOXVILLE *    CLOUDY    21  18  86 NE9       30.11S WCI  11          
MARSHALLTOWN   CLOUDY    17  14  88 NE15      30.16F WCI   2          
6HR MIN TEMP:  16; 6HR MAX TEMP:  18; 6HR PCP:  0.02;                

NEWTON *       CLOUDY    18  16  93 NE16      30.14F WCI   3          
PELLA *        MOCLDY    20  17  88 NE8       30.15S WCI  11          
PERRY *        CLOUDY    18  16  90 NE13      30.17R WCI   5          
$$
 
IAZ004>006-015-016-023>025-035-036-090700-
   NORTH CENTRAL IOWA
  
CITY           SKY/WX    TMP DP  RH WIND       PRES   REMARKS
ALGONA *       LGT SNOW  12 N/A N/A NE16G22   30.24R WCI  -4          
CLARION *      FOG       16  16 100 NE17      30.22R VSB 3/4 WCI   0  
ESTHERVILLE    LGT SNOW   9   6  88 NE16      30.25S FOG     WCI  -8  
6HR MIN TEMP:   9; 6HR MAX TEMP:  11; 6HR PCP:  0.03;                

FORT DODGE *   LGT SNOW  15  12  88 MISG      30.21S VSB 1            
MASON CITY     LGT SNOW  13   9  84 NE13      30.25S VSB 3/4 WCI  -2  
6HR MIN TEMP:  13; 6HR MAX TEMP:  15; 6HR PCP:  0.11;                

FOREST CITY *  LGT SNOW  14  12  92 NE7       30.24F WCI   4          
WEBSTER CITY * SNOW      16  14  93 NE13      30.18S VSB 1/2 WCI   2  
IOWA FALLS *   LGT SNOW  17  14  90 NE15      30.21R VSB 1   WCI   2  
$$

IAZ007>011-017>019-026>030-037>042-050>054-066-090700-
   NORTHEAST IOWA
  
CITY           SKY/WX    TMP DP  RH WIND       PRES   REMARKS
CEDAR RAPIDS   FAIR      20  15  81 NE14      30.16F HAZE    WCI   7  
6HR MIN TEMP:  19; 6HR MAX TEMP:  20; 6HR PCP: TRACE;                

CHARLES CITY * SNOW      14  16 100 NE9       30.25S VSB 1/2 WCI   2  
CLINTON *      CLOUDY    19  17  92 NE14      30.20F WCI   6          
DECORAH *      LGT SNOW  14  14 100 NE5       30.24F VSB 3/4 WCI   6  
DUBUQUE        LGT SNOW  16  13  88 NE14      30.21S VSB 3/4 WCI   2  
6HR MIN TEMP:  16; 6HR MAX TEMP:  17; 6HR PCP:  0.28;                

MONTICELLO *   FLURRIES  18  16  93 NE8       30.21S WCI   7          
OELWEIN *      LGT SNOW  16  16 100 NE14      30.21F VSB 3/4 WCI   1  
WATERLOO       LGT SNOW  17  14  88 N12       30.22F VSB 1   WCI   4  
6HR MIN TEMP:  16; 6HR MAX TEMP:  17; 6HR PCP:  0.50;                

$$
 
IAZ064-065-067-068-078-090700-
   EAST CENTRAL IOWA
  
CITY           SKY/WX    TMP DP  RH WIND       PRES   REMARKS
DAVENPORT      FAIR      21  17  84 E14       30.18F FOG     WCI   8  
6HR MIN TEMP:  20; 6HR MAX TEMP:  21; 6HR PCP:  0.01;                

IOWA CITY      FAIR      20  15  81 NE14      30.18F WCI   7          
6HR MIN TEMP:  20; 6HR MAX TEMP:  22; 6HR PCP: TRACE;                

MT. PLEASANT * CLOUDY    25  21  86 NE7       30.12F WCI  17          
MUSCATINE *    CLOUDY    23  19  86 NE10      30.16F WCI  12          
QUAD CITIES    MOCLDY    22  18  85 E13       30.17F WCI  10          
6HR MIN TEMP:  21; 6HR MAX TEMP:  22; 6HR PCP:  0.01;                

$$
 
IAZ062-063-075>077-085>089-095>099-090700-
   SOUTHEAST IOWA
  
CITY           SKY/WX    TMP DP  RH WIND       PRES   REMARKS
BURLINGTON     CLOUDY    28  21  75 E8        30.10F WCI  20          
6HR MIN TEMP:  26; 6HR MAX TEMP:  28;                                

FAIRFIELD *    CLOUDY    23  19  86 E13       30.10F WCI  11          
FORT MADISON * CLOUDY    28  25  86 E8        30.10F WCI  20          
KEOKUK *       CLOUDY    30  25  80 NE5       30.09F WCI  25          
OSKALOOSA *    MOCLDY    20  18  92 NE12      30.12F FOG     WCI   8  
OTTUMWA        CLOUDY    22  18  85 NE10      30.10F FOG     WCI  11  
6HR MIN TEMP:  22; 6HR MAX TEMP:  24;                                

WASHINGTON *   CLOUDY    21  21 100 NE14      30.13F FOG     WCI   8  
$$

ABBREVIATIONS USED IN REMARKS
   TC - TEMPERATURES IN CELSIUS
  WCI - WIND CHILL INDEX
   HX - HEAT INDEX
  VSB - VISIBILITY  
$$

  

370 
ASUS43 KDMX 090601
RWRIA 

WEATHER ROUNDUP FOR IOWA
NATIONAL WEATHER SERVICE DES MOINES IA
1200 AM CST FRI FEB 09 2018

NOTE: "FAIR" INDICATES FEW OR NO CLOUDS BELOW 12,000 FEET WITH NO
SIGNIFICANT WEATHER AND/OR OBSTRUCTIONS TO VISIBILITY.

* - THESE STATIONS ARE NOT NWS STATIONS...THUS NOT UNDER NWS
QUALITY CONTROL.  THEY ALSO DO NOT REPORT WEATHER SUCH 
AS PRECIPITATION OR FOG.  

IAZ001>003-012>014-020>022-031>034-043>046-090700-
   NORTHWEST IOWA
  
CITY           SKY/WX    TMP DP  RH WIND       PRES   REMARKS
CARROLL *      SNOW      16  14  93 NE15      30.17R VSB 1/2 WCI   1  
CHEROKEE *     LGT SNOW  12   9  88 NE12      30.23R WCI  -2          
DENISON *      SNOW      16  14  93 NE14G22   30.17R VSB 1/2 WCI   1  
LE MARS *      CLOUDY    12   9  85 NE18G25   30.23S WCI  -5          
ORANGE CITY *  FLURRIES  12  10  92 NE12      30.22S WCI  -2          
SHELDON *      CLOUDY    10   9  92 NE20G25   30.21S WCI  -8          
SIOUX CITY     CLOUDY    14  10  84 NE14      30.22R WCI  -1          
6HR MIN TEMP:  14; 6HR MAX TEMP:  16; 6HR PCP:  0.19;                

SPENCER        CLOUDY    12   7  80 NE18      30.24S WCI  -6          
6HR MIN TEMP:  11; 6HR MAX TEMP:  14; 6HR PCP: TRACE;                

STORM LAKE *   LGT SNOW  12   9  85 NE20G29   30.19R VSB 3/4 WCI  -6  
$$
 
IAZ055>058-069>071-079>083-090>094-090700-
   SOUTHWEST IOWA
  
CITY           SKY/WX    TMP DP  RH WIND       PRES   REMARKS
ATLANTIC *     CLOUDY    19  18  93 NE17G23   30.10S WCI   4          
AUDUBON *      CLOUDY    18  14  86 NE12G17   30.13R WCI   5          
CLARINDA *     CLOUDY    27  23  86 NE13G20   30.07F WCI  16          
COUNCIL BLFS * CLOUDY    19  19 100 NE15      30.08S WCI   5          
CRESTON *      CLOUDY    21  19  93 NE16G22   30.07F WCI   7          
HARLAN  *      CLOUDY    18  18 100 NE16      30.14F WCI   3          
LAMONI         CLOUDY    25  20  81 NE10      30.05F WCI  15          
6HR MIN TEMP:  25; 6HR MAX TEMP:  31;                                

RED OAK *      CLOUDY    23  19  86 NE14G22   30.07F WCI  11          
SHENANDOAH *   CLOUDY    25  21  86 NE14      30.06S WCI  13          
$$
 
IAZ047>049-059>061-072>074-084-090700-
   CENTRAL IOWA
  
CITY           SKY/WX    TMP DP  RH WIND       PRES   REMARKS
AMES           CLOUDY    18  14  84 NE14      30.18R WCI   4          
6HR MIN TEMP:  18; 6HR MAX TEMP:  18;                                

ANKENY *       CLOUDY    18  16  93 NE10      30.16F WCI   6          
BOONE *        CLOUDY    18  14  86 NE17      30.16R WCI   2          
CHARITON *     CLOUDY    21  19  93 N9        30.09S WCI  11          
DES MOINES     LGT SNOW  20  15  81 E13       30.12F WCI   7          
6HR MIN TEMP:  20; 6HR MAX TEMP:  21; 6HR PCP: TRACE;                

GRINNELL*      CLOUDY    18  16  92 NE16      30.15F WCI   3          
KNOXVILLE *    CLOUDY    21  18  86 NE9       30.11S WCI  11          
MARSHALLTOWN   CLOUDY    17  14  88 NE15      30.16F WCI   2          
6HR MIN TEMP:  16; 6HR MAX TEMP:  18; 6HR PCP:  0.02;                

NEWTON *       CLOUDY    18  16  93 NE16      30.14F WCI   3          
PELLA *        MOCLDY    20  17  88 NE8       30.15S WCI  11          
$$
 
IAZ004>006-015-016-023>025-035-036-090700-
   NORTH CENTRAL IOWA
  
CITY           SKY/WX    TMP DP  RH WIND       PRES   REMARKS
CLARION *      FOG       16  16 100 NE17      30.22R VSB 3/4 WCI   0  
ESTHERVILLE    LGT SNOW   9   6  88 NE16      30.25S FOG     WCI  -8  
6HR MIN TEMP:   9; 6HR MAX TEMP:  11; 6HR PCP:  0.03;                

FORT DODGE *   LGT SNOW  15  12  88 MISG      30.21S VSB 1            
MASON CITY     LGT SNOW  13   9  84 NE13      30.25S VSB 3/4 WCI  -2  
6HR MIN TEMP:  13; 6HR MAX TEMP:  15; 6HR PCP:  0.11;                

FOREST CITY *  LGT SNOW  14  12  92 NE7       30.24F WCI   4          
WEBSTER CITY * SNOW      16  14  93 NE13      30.18S VSB 1/2 WCI   2  
IOWA FALLS *   LGT SNOW  17  14  90 NE15      30.21R VSB 1   WCI   2  
$$

IAZ007>011-017>019-026>030-037>042-050>054-066-090700-
   NORTHEAST IOWA
  
CITY           SKY/WX    TMP DP  RH WIND       PRES   REMARKS
CEDAR RAPIDS   FAIR      20  15  81 NE14      30.16F HAZE    WCI   7  
6HR MIN TEMP:  19; 6HR MAX TEMP:  20; 6HR PCP: TRACE;                

CHARLES CITY * SNOW      14  16 100 NE9       30.25S VSB 1/2 WCI   2  
CLINTON *      CLOUDY    19  17  92 NE14      30.20F WCI   6          
DECORAH *      LGT SNOW  14  14 100 NE5       30.24F VSB 3/4 WCI   6  
DUBUQUE        LGT SNOW  16  13  88 NE14      30.21S VSB 3/4 WCI   2  
6HR MIN TEMP:  16; 6HR MAX TEMP:  17; 6HR PCP:  0.28;                

MONTICELLO *   FLURRIES  18  16  93 NE8       30.21S WCI   7          
OELWEIN *      LGT SNOW  16  16 100 NE14      30.21F VSB 3/4 WCI   1  
WATERLOO       LGT SNOW  17  14  88 N12       30.22F VSB 1   WCI   4  
6HR MIN TEMP:  16; 6HR MAX TEMP:  17; 6HR PCP:  0.50;                

$$
 
IAZ064-065-067-068-078-090700-
   EAST CENTRAL IOWA
  
CITY           SKY/WX    TMP DP  RH WIND       PRES   REMARKS
DAVENPORT      FAIR      21  17  84 E14       30.18F FOG     WCI   8  
6HR MIN TEMP:  20; 6HR MAX TEMP:  21; 6HR PCP:  0.01;                

IOWA CITY      FAIR      20  15  81 NE14      30.18F WCI   7          
6HR MIN TEMP:  20; 6HR MAX TEMP:  22; 6HR PCP: TRACE;                

MT. PLEASANT * CLOUDY    25  21  86 NE7       30.12F WCI  17          
MUSCATINE *    CLOUDY    23  19  86 NE10      30.16F WCI  12          
QUAD CITIES    MOCLDY    22  18  85 E13       30.17F WCI  10          
6HR MIN TEMP:  21; 6HR MAX TEMP:  22; 6HR PCP:  0.01;                

$$
 
IAZ062-063-075>077-085>089-095>099-090700-
   SOUTHEAST IOWA
  
CITY           SKY/WX    TMP DP  RH WIND       PRES   REMARKS
BURLINGTON     CLOUDY    28  21  75 E8        30.10F WCI  20          
6HR MIN TEMP:  26; 6HR MAX TEMP:  28;                                

FAIRFIELD *    CLOUDY    23  19  86 E13       30.10F WCI  11          
FORT MADISON * CLOUDY    28  25  86 E8        30.10F WCI  20          
KEOKUK *       CLOUDY    30  25  80 NE5       30.09F WCI  25          
OSKALOOSA *    MOCLDY    20  18  92 NE12      30.12F FOG     WCI   8  
OTTUMWA        CLOUDY    22  18  85 NE10      30.10F FOG     WCI  11  
6HR MIN TEMP:  22; 6HR MAX TEMP:  24;                                

WASHINGTON *   CLOUDY    21  21 100 NE14      30.13F FOG     WCI   8  
$$

ABBREVIATIONS USED IN REMARKS
   TC - TEMPERATURES IN CELSIUS
  WCI - WIND CHILL INDEX
   HX - HEAT INDEX
  VSB - VISIBILITY  
$$